Flight Track Log - Related Links

Times and Time Zones

All times are in EDT time to prevent confusion due to time zone crossing. See the SWA631 flight status page for this flight to view local times or setup timezone preferences in your user account.

Time Position Orientation Groundspeed Altitude Reporting Facility
EDT Latitude Longitude Course Direction KTS MPH feet Rate Location/Type
12:19PM 35.0600 -106.5153 73° East 226 260 7,900  Level Albuquerque Center
12:20PM 35.0994 -106.5506 324° Northwest 237 273 10,200 2,344 Climbing Albuquerque Center
12:21PM 35.0953 -106.6600 267° West 284 327 12,900 3,048 Climbing Albuquerque Center
12:22PM 35.0942 -106.7606 269° West 299 344 16,500 2,323 Climbing Albuquerque Center
12:23PM 35.1211 -106.8642 288° West 339 390 17,700 1,984 Climbing Albuquerque Center
12:24PM 35.1547 -107.0061 286° West 376 433 20,600 2,661 Climbing Albuquerque Center
12:25PM 35.1839 -107.1347 286° West 392 451 23,200 2,323 Climbing Albuquerque Center
12:26PM 35.2139 -107.2689 285° West 405 466 25,400 2,129 Climbing Albuquerque Center
12:27PM 35.2333 -107.4261 279° West 418 481 27,600 1,872 Climbing Albuquerque Center
12:28PM 35.2472 -107.5689 277° West 438 504 29,300 1,742 Climbing Albuquerque Center
12:29PM 35.2644 -107.7100 279° West 440 506 31,200 2,049 Climbing Albuquerque Center
12:30PM 35.2833 -107.8714 278° West 433 498 33,500 1,887 Climbing Albuquerque Center
12:31PM 35.3006 -108.0081 279° West 425 489 35,100 1,306 Climbing Albuquerque Center
12:32PM 35.3125 -108.1714 275° West 427 491 36,200 1,403 Climbing Albuquerque Center
12:33PM 35.3228 -108.3089 275° West 425 489 38,000 1,790 Climbing Albuquerque Center
12:34PM 35.3356 -108.4628 276° West 412 474 39,900 968 Climbing Albuquerque Center
12:35PM 35.3456 -108.5939 275° West 404 465 40,000 48 Climbing Albuquerque Center
12:36PM 35.3572 -108.7478 275° West 405 466 40,000  Level Albuquerque Center
12:37PM 35.3678 -108.8794 276° West 405 466 40,000  Level Albuquerque Center
12:38PM 35.3772 -109.0128 275° West 406 467 40,000  Level Albuquerque Center
12:39PM 35.3889 -109.1675 275° West 405 466 40,000  Level Albuquerque Center
12:40PM 35.3986 -109.2967 275° West 401 461 40,000  Level Albuquerque Center
12:41PM 35.4089 -109.4486 275° West 398 458 40,000  Level Albuquerque Center
12:42PM 35.4178 -109.5772 275° West 397 457 40,000  Level Albuquerque Center
12:44PM 35.4272 -109.7292 274° West 397 457 40,000  Level Albuquerque Center
12:45PM 35.4350 -109.8589 274° West 398 458 40,000  Level Albuquerque Center
12:46PM 35.4433 -109.9889 275° West 398 458 40,000  Level Albuquerque Center
12:47PM 35.4519 -110.1419 274° West 401 461 40,000  Level Albuquerque Center
12:48PM 35.4600 -110.2722 274° West 401 461 40,000 -532 Level Albuquerque Center
12:49PM 35.4697 -110.4247 275° West 401 461 38,900 -968 Descending Albuquerque Center
12:50PM 35.4775 -110.5547 274° West 399 459 38,000 -919 Descending Albuquerque Center
12:51PM 35.4875 -110.7094 275° West 404 465 37,000 -919 Descending Albuquerque Center
12:52PM 35.4947 -110.8422 274° West 407 468 36,100 -484 Descending Albuquerque Center
12:53PM 35.5050 -110.9983 275° West 410 472 36,000 -48 Descending Albuquerque Center
12:54PM 35.5125 -111.1333 274° West 413 475 36,000  Level Albuquerque Center
12:55PM 35.5219 -111.2889 274° West 411 473 36,000  Level Albuquerque Center
12:56PM 35.5278 -111.4183 273° West 402 463 36,000 -1,113 Level Albuquerque Center
12:57PM 35.5367 -111.5628 274° West 405 466 33,700 -1,935 Descending Albuquerque Center
12:59PM 35.5503 -111.8222 274° West 385 443 30,000 -1,194 Descending Albuquerque Center
01:00PM 35.5558 -111.9519 273° West 383 441 30,000  Level Albuquerque Center
01:01PM 35.5639 -112.1094 274° West 386 444 30,000  Level Albuquerque Center
01:02PM 35.5697 -112.2400 273° West 387 445 30,000  Level Albuquerque Center
01:03PM 35.5756 -112.3700 273° West 385 443 30,000  Level Albuquerque Center
01:04PM 35.5819 -112.5000 273° West 385 443 30,000  Level Albuquerque Center
01:05PM 35.5883 -112.6300 273° West 386 444 30,000  Level Albuquerque Center
01:06PM 35.5953 -112.7869 273° West 388 447 30,000  Level Albuquerque Center
01:07PM 35.6017 -112.9183 273° West 389 448 30,000  Level Albuquerque Center
01:08PM 35.6072 -113.0503 273° West 394 453 30,000  Level Albuquerque Center
01:09PM 35.6117 -113.1817 272° West 393 452 30,000 -1,065 Level Albuquerque Center
01:10PM 35.6169 -113.3336 272° West 382 440 27,800 -1,760 Descending Albuquerque Center
01:12PM 35.6219 -113.4831 272° West 368 423 25,600 -1,748 Descending Los Angeles Center
01:13PM 35.6356 -113.6256 277° West 354 407 23,400 -1,920 Descending Los Angeles Center
01:14PM 35.6525 -113.7400 280° West 345 397 21,600 -1,839 Descending Los Angeles Center
01:15PM 35.6717 -113.8739 280° West 334 384 19,600 -1,839 Descending Los Angeles Center
01:16PM 35.6872 -113.9861 280° West 335 386 17,800 -1,694 Descending Los Angeles Center
01:17PM 35.7025 -114.0983 280° West 334 384 16,100 -1,742 Descending Los Angeles Center
01:18PM 35.7183 -114.2203 279° West 330 380 14,200 -1,742 Descending Los Angeles Center
01:19PM 35.7339 -114.3278 280° West 321 369 12,500 -1,056 Descending Los Angeles Center
01:20PM 35.7844 -114.4042 309° West 310 357 12,000 -240 Descending Los Angeles Center
01:21PM 35.8622 -114.4386 340° North 297 342 12,000 -532 Level Los Angeles Center
01:22PM 35.9361 -114.4517 352° North 272 313 10,900 -1,113 Descending Los Angeles Center
01:23PM 36.0269 -114.4658 353° North 271 312 9,700 -1,159 Descending Los Angeles Center
01:25PM 36.0714 -114.5761 297° West 254 292 8,100 -823 Descending Los Angeles Center
01:25PM 36.0725 -114.6269 272° West 245 282 8,000 -58 Descending Los Angeles Center
01:26PM 36.0711 -114.7100 269° West 242 278 8,000 -435 Level Los Angeles Center
01:27PM 36.0703 -114.7917 269° West 239 275 7,100 -726 Descending Los Angeles Center
01:28PM 36.0711 -114.8731 271° West 238 274 6,500 -968 Descending Los Angeles Center
01:29PM 36.0725 -114.9667 271° West 233 268 5,100 -1,344 Descending Los Angeles Center
01:30PM 36.0711 -115.0286 268° West 206 237 3,700 -1,152 Descending Los Angeles Center
01:32PM 36.0717 -115.0833 271° West 177 204 2,700 -780 Descending Los Angeles Center
01:33PM 36.0725 -115.1242 271° West 164 189 2,100 -590 Descending Los Angeles Center

Login

Don't have an account? Register now (free) for customized features, flight alerts, and more!